ONEWEB-0703, 56724

Orbit data source: Space-Track

ONEWEB-0703, 56724 is a payload satellite owned by One Web (NAA) (UK) in LEO that was launched on Sat, 20 May 2023 UTC via an FALCON 9 launch vehicle from the Air Force Western Test Range (AFWTR). Payloads include a variety of satellites, spacecraft, and rockets equipped with specific instruments for various scientific and technological missions. These include communications satellites like Starlink; space stations such as the ISS; scientific satellites like the Hubble; Earth observation satellites from companies like Planet Labs, Umbra, and HawkEye 360; GPS; miniature CubeSats for education and research; and military/defense satellites.

Loading next visibility...
ONEWEB-0703 details
Identifier
56724, 2023-068Q
Orbit
LEO
Last TLE update15 hours ago
Origin
Flag of UKOne Web (NAA) (UK)
ManufacturerOne Web
MissionOperational Commercial Communications
Bus & MotorARROW, Unknown motor
Mass148 kg wet, ~140 kg dry
Launch date (UTC)
2023-05-20 (2 years ago)
Launch vehicle
FALCON 9
Launch site
Air Force Western Test Range (AFWTR)
Object type
Payload
Rocket body
Debris
Shape & HBRTrap Box + 2 Pan, 5 m
Radar Cross Section2.032 m², Large (>1 m²)

Expand to show TLE details & history

TLE from 15 hours ago
0 ONEWEB-0703
1 56724U 23068Q   25015.00359053 -.00000035  00000-0 -12647-3 0  9994
2 56724  87.9079   2.4232 0000640 103.8979 256.2223 13.15546934 81828
Epoch: 2025-01-15T00:05Z
Definitive object data (Epoch: 2025-01-15T00:05:10.221Z)
Latitude0.00001°
Longitude-113.57156°
Altitude1,204.788 km
Speed7.252 km/s
True Right ascension00h 09m 41s
True Declination0° 00' 00"
Sunlit
Object was in daylight at TLE epoch
Visualization TLE readout
Latitude34.58676°
Longitude64.86555°
Altitude1,206.018 km
Speed7.254 km/s
Apparent Right ascension08h 51m 39s
Apparent Declination2° 07' 44"
Sunlit
Object is in partial shadow
Visualization observer readout
Local Sidereal Time16:06:25
Azimuth283.884° WNW
Elevation-12.814°
Doppler factor1
Orbital elements
Apogee altitude1,199.374 km
Perigee altitude1,198.404 km
Semi-major axis7,577.026 km
Eccentricity0.000064
Inclination87.9079°
RAAN2.4232°
Arg. of periapsis103.8979°
True anomaly256.21518°
Mean anomaly256.2223°
Eccentric anomaly256.21874°
Mean motion3.29075 °/min
BSTAR-0.00012647
Orbital period109.4 mins
Loading maneuver chart data...
Loading historical data...
Loading historical data...
Loading historical data...
Loading historical data...
Loading historical data...
Loading historical data...
Loading historical data...

ONEWEB-0703 Visibility forecast

Observer location: undefined°, undefined

Span
Click to sort rows by Start time (UTC) header in descending order
Start Az.
Max El. time (UTC)
Max El. Az.
Max El.
End time (UTC)
End Az.
10 mins2025-01-15 22:07:33.842Z120.732° SE2025-01-15 22:12:33.842Z71.193° E22.251°2025-01-15 22:17:33.842Z26.739° NE
12 mins2025-01-15 23:55:33.842Z198.59° SSW2025-01-16 00:01:33.842Z289.008° WNW40.405°2025-01-16 00:07:33.842Z351.569° N
7 mins2025-01-16 09:35:33.842Z47.111° ENE2025-01-16 09:38:33.842Z76.072° E17.413°2025-01-16 09:42:33.842Z111.716° ESE
13 mins2025-01-16 11:22:33.842Z355.404° N2025-01-16 11:28:33.842Z280.169° WNW44.189°2025-01-16 11:35:33.842Z188.516° SSW
|